When you browse on this site, cookies collect data to enhance your experience and personalize the content and advertising you see.
Visit our Privacy Policy to learn more. By continuing to use the site, you agree to this use of cookies and data.
  • In United Kingdom
  • List of Countries
  • For 7 days
  • Water Temperature
  • Satellite Maps
  • Weather Map
  • Weather Widgets
  • user-avatar
    Login

    Hourly Weather Punta Gorda

    Today, 26 May, Sunday

    Time Temperature Precipitation Wind Pressure Humidity
    00:00 +26°C° 0.5 mm 1 mps 760 mmHg 90%
    01:00 +26°C° 0.4 mm 1 mps 759 mmHg 92%
    02:00 +25°C° 0.4 mm 1 mps 759 mmHg 93%
    03:00 +25°C° 0.4 mm 1 mps 759 mmHg 95%
    04:00 +25°C° 0.1 mm 1 mps 759 mmHg 94%
    05:00 +25°C° 0.1 mm 1 mps 759 mmHg 93%
    06:00 +25°C° 0.1 mm 1 mps 759 mmHg 91%
    07:00 +28°C° 0.1 mm 1 mps 759 mmHg 79%
    08:00 +31°C° 0.1 mm 1 mps 759 mmHg 66%
    09:00 +34°C° 0.1 mm 1 mps 760 mmHg 53%
    10:00 +35°C° 0 mm 2 mps 759 mmHg 50%
    11:00 +36°C° 0 mm 2 mps 759 mmHg 47%
    12:00 +37°C° 0 mm 3 mps 759 mmHg 44%
    13:00 +36°C° 0 mm 4 mps 758 mmHg 46%
    14:00 +36°C° 0 mm 4 mps 758 mmHg 48%
    15:00 +36°C° 0 mm 4 mps 757 mmHg 50%
    16:00 +34°C° 0.1 mm 4 mps 757 mmHg 55%
    17:00 +33°C° 0.1 mm 4 mps 758 mmHg 60%
    18:00 +32°C° 0.1 mm 4 mps 758 mmHg 65%
    19:00 +30°C° 0.1 mm 3 mps 758 mmHg 70%
    20:00 +29°C° 0.1 mm 3 mps 759 mmHg 76%
    21:00 +28°C° 0.1 mm 3 mps 760 mmHg 81%
    22:00 +27°C° 0.3 mm 2 mps 760 mmHg 84%
    23:00 +27°C° 0.3 mm 2 mps 759 mmHg 86%

    Tomorrow, 27 May, Monday

    Time Temperature Precipitation Wind Pressure Humidity
    00:00 +26°C° 0.3 mm 1 mps 759 mmHg 88%
    01:00 +26°C° 0.5 mm 1 mps 759 mmHg 90%
    02:00 +26°C° 0.5 mm 1 mps 759 mmHg 92%
    03:00 +25°C° 0.5 mm 1 mps 758 mmHg 94%
    04:00 +25°C° 0 mm 1 mps 758 mmHg 93%
    05:00 +25°C° 0 mm 1 mps 758 mmHg 92%
    06:00 +26°C° 0 mm 1 mps 758 mmHg 91%
    07:00 +29°C° 0 mm 1 mps 759 mmHg 78%
    08:00 +29°C° 0 mm 0 mps 759 mmHg 65%
    09:00 +32°C° 0 mm 0 mps 759 mmHg 52%
    10:00 +35°C° 0 mm 1 mps 759 mmHg 49%
    11:00 +36°C° 0 mm 2 mps 758 mmHg 47%
    12:00 +37°C° 0 mm 3 mps 758 mmHg 44%
    13:00 +37°C° 0 mm 3 mps 757 mmHg 45%
    14:00 +36°C° 0 mm 4 mps 756 mmHg 46%
    15:00 +36°C° 0 mm 5 mps 756 mmHg 47%
    16:00 +35°C° 0 mm 5 mps 756 mmHg 53%
    17:00 +33°C° 0 mm 4 mps 756 mmHg 58%
    18:00 +32°C° 0 mm 4 mps 756 mmHg 64%
    19:00 +30°C° 0.1 mm 4 mps 757 mmHg 70%
    20:00 +29°C° 0.1 mm 3 mps 757 mmHg 76%
    21:00 +28°C° 0.1 mm 2 mps 758 mmHg 82%
    22:00 +27°C° 0.1 mm 2 mps 758 mmHg 84%
    23:00 +27°C° 0.1 mm 2 mps 758 mmHg 87%

    Day after tomorrow, 28 May, Tuesday

    Time Temperature Precipitation Wind Pressure Humidity
    00:00 +26°C° 0.1 mm 1 mps 758 mmHg 90%
    01:00 +26°C° 0.1 mm 1 mps 757 mmHg 91%
    02:00 +26°C° 0.1 mm 1 mps 757 mmHg 91%
    03:00 +26°C° 0.1 mm 1 mps 756 mmHg 92%
    04:00 +26°C° 0.1 mm 1 mps 756 mmHg 91%
    05:00 +26°C° 0.1 mm 1 mps 756 mmHg 90%
    06:00 +26°C° 0.1 mm 1 mps 756 mmHg 89%
    07:00 +28°C° 0.1 mm 1 mps 757 mmHg 77%
    08:00 +31°C° 0.1 mm 1 mps 757 mmHg 66%
    09:00 +33°C° 0.1 mm 1 mps 757 mmHg 55%
    10:00 +35°C° 0.1 mm 2 mps 757 mmHg 52%
    11:00 +36°C° 0.1 mm 2 mps 756 mmHg 49%
    12:00 +37°C° 0.1 mm 3 mps 756 mmHg 46%
    13:00 +37°C° 0 mm 4 mps 755 mmHg 47%
    14:00 +36°C° 0 mm 4 mps 754 mmHg 49%
    15:00 +36°C° 0 mm 5 mps 754 mmHg 50%
    16:00 +35°C° 0 mm 4 mps 754 mmHg 56%
    17:00 +33°C° 0 mm 4 mps 754 mmHg 62%
    18:00 +32°C° 0 mm 4 mps 754 mmHg 67%
    19:00 +30°C° 0 mm 4 mps 755 mmHg 73%
    20:00 +29°C° 0 mm 3 mps 756 mmHg 79%
    21:00 +28°C° 0 mm 3 mps 756 mmHg 84%
    22:00 +27°C° 0 mm 2 mps 756 mmHg 86%
    23:00 +27°C° 0 mm 2 mps 756 mmHg 89%

    29 May, Wednesday

    Time Temperature Precipitation Wind Pressure Humidity
    00:00 +26°C° 0 mm 1 mps 756 mmHg 91%
    01:00 +26°C° 0 mm 1 mps 756 mmHg 91%
    02:00 +26°C° 0 mm 1 mps 755 mmHg 91%
    03:00 +26°C° 0 mm 1 mps 754 mmHg 91%
    04:00 +26°C° 0 mm 1 mps 755 mmHg 90%
    05:00 +26°C° 0 mm 1 mps 755 mmHg 90%
    06:00 +26°C° 0 mm 1 mps 755 mmHg 89%
    07:00 +29°C° 0 mm 1 mps 755 mmHg 80%
    08:00 +31°C° 0 mm 1 mps 755 mmHg 70%
    09:00 +33°C° 0 mm 1 mps 756 mmHg 61%
    10:00 +34°C° 0 mm 1 mps 755 mmHg 56%
    11:00 +36°C° 0 mm 2 mps 755 mmHg 51%
    12:00 +38°C° 0 mm 2 mps 754 mmHg 46%
    13:00 +37°C° 0 mm 3 mps 754 mmHg 47%
    14:00 +37°C° 0 mm 4 mps 753 mmHg 47%
    15:00 +37°C° 0 mm 4 mps 752 mmHg 48%
    16:00 +35°C° 0 mm 4 mps 753 mmHg 55%
    17:00 +34°C° 0 mm 4 mps 753 mmHg 62%
    18:00 +32°C° 0 mm 4 mps 753 mmHg 69%
    19:00 +30°C° 0 mm 4 mps 754 mmHg 74%
    20:00 +30°C° 0 mm 3 mps 755 mmHg 79%
    21:00 +29°C° 0 mm 3 mps 755 mmHg 85%
    22:00 +28°C° 0 mm 3 mps 755 mmHg 87%
    23:00 +28°C° 0 mm 2 mps 755 mmHg 89%

    30 May, Thursday

    Time Temperature Precipitation Wind Pressure Humidity
    00:00 +27°C° 0 mm 2 mps 755 mmHg 92%
    01:00 +27°C° 0.1 mm 1 mps 755 mmHg 92%
    02:00 +27°C° 0.1 mm 1 mps 754 mmHg 92%
    03:00 +27°C° 0.1 mm 1 mps 754 mmHg 93%
    04:00 +27°C° 0.1 mm 1 mps 754 mmHg 92%
    05:00 +27°C° 0.1 mm 1 mps 755 mmHg 91%
    06:00 +27°C° 0.1 mm 1 mps 755 mmHg 89%
    07:00 +29°C° 0.2 mm 1 mps 755 mmHg 81%
    08:00 +29°C° 0.2 mm 0 mps 755 mmHg 73%
    09:00 +31°C° 0.2 mm 0 mps 756 mmHg 64%
    10:00 +34°C° 0 mm 1 mps 755 mmHg 59%
    11:00 +35°C° 0 mm 1 mps 755 mmHg 53%
    12:00 +36°C° 0 mm 1 mps 754 mmHg 48%
    13:00 +38°C° 0 mm 2 mps 754 mmHg 46%
    14:00 +38°C° 0 mm 2 mps 753 mmHg 44%
    15:00 +38°C° 0 mm 3 mps 752 mmHg 43%
    16:00 +37°C° 0 mm 3 mps 753 mmHg 48%
    17:00 +36°C° 0 mm 4 mps 753 mmHg 54%
    18:00 +34°C° 0 mm 4 mps 753 mmHg 60%
    19:00 +33°C° 0.1 mm 4 mps 754 mmHg 67%
    20:00 +32°C° 0.1 mm 4 mps 755 mmHg 75%
    21:00 +29°C° 0.1 mm 3 mps 755 mmHg 82%
    22:00 +29°C° 0 mm 3 mps 755 mmHg 85%
    23:00 +28°C° 0 mm 2 mps 755 mmHg 87%

    31 May, Friday

    Time Temperature Precipitation Wind Pressure Humidity
    00:00 +28°C° 0 mm 2 mps 755 mmHg 89%
    01:00 +28°C° 0.4 mm 2 mps 755 mmHg 89%
    02:00 +27°C° 0.4 mm 2 mps 754 mmHg 89%
    03:00 +27°C° 0.4 mm 2 mps 754 mmHg 90%
    04:00 +27°C° 1.4 mm 2 mps 754 mmHg 89%
    05:00 +27°C° 1.4 mm 1 mps 755 mmHg 89%
    06:00 +27°C° 1.4 mm 1 mps 755 mmHg 89%
    07:00 +28°C° 0.9 mm 1 mps 755 mmHg 83%
    08:00 +30°C° 0.9 mm 1 mps 756 mmHg 77%
    09:00 +31°C° 0.9 mm 2 mps 756 mmHg 70%
    10:00 +32°C° 0.5 mm 2 mps 755 mmHg 68%
    11:00 +34°C° 0.5 mm 2 mps 755 mmHg 66%
    12:00 +34°C° 0.5 mm 3 mps 755 mmHg 63%
    13:00 +35°C° 0.1 mm 3 mps 754 mmHg 60%
    14:00 +35°C° 0.1 mm 3 mps 753 mmHg 57%
    15:00 +35°C° 0.1 mm 3 mps 753 mmHg 53%
    16:00 +34°C° 0 mm 3 mps 753 mmHg 56%
    17:00 +34°C° 0 mm 3 mps 753 mmHg 59%
    18:00 +33°C° 0 mm 3 mps 754 mmHg 62%
    19:00 +31°C° 0.3 mm 3 mps 754 mmHg 69%
    20:00 +30°C° 0.3 mm 2 mps 755 mmHg 75%
    21:00 +28°C° 0.3 mm 2 mps 755 mmHg 82%
    22:00 +28°C° 0.8 mm 2 mps 755 mmHg 85%
    23:00 +27°C° 0.8 mm 1 mps 755 mmHg 89%
    Show more